Starlink 34869

operational
NORAD ID: 65371 Int'l Des: 2025-190 Owner: SPXS Country: US Constellation: starlink
LEOCIRCULAR

About Starlink 34869

Description loading...

Live Position

Loading 3D Globe...

Upcoming Passes

Altitude History

Altitude vs Time

uPlot chart will show altitude changes over time

Two-Line Element Set

1 65371U 25190W 26062.40712760 .00034884 00000-0 11837-2 0 9991
2 65371 53.1576 197.3303 0001397 104.8267 255.2889 15.30218244 28790
Epoch: Mar 3, 2026 • Age: 20 hours

Current Status

Altitude 474.8 km
Velocity 7.63 km/s
Sub-Earth Point 9.92°N, 92.3°W
Launch Date Aug 28, 2025
Age 0.5 years
Type internet

Technical Details

Classification Payload
Mass 575.00 kg
Dry Mass 530.00 kg
Total Mass 575.00 kg
Length 0.30 m
Diameter 4.10 m
Span 29.00 m
Shape Box + pan
Manufacturer SPXS
Bus Type Starlink V2MO
Phase Status In Orbit
Owner/State SPXS/US

Large Constellations

Loading constellations...